Location: Mannheim
(49.4880°N, 8.4650°E)
Time: 08:56:55
(UTC+02:00)

ISS - Pass Details

Date: 27 May 2022
Orbit: 414 x 420 km, 51.6° (Epoch: 30 June)

Event Time Altitude Azimuth Distance (km) Brightness Sun altitude
Rises 23:57:52 0° 284° (WNW) 2,368 0.6 -16.8°
Reaches altitude 10° 00:00:25 10° 265° (W) 1,498 -0.8 -16.9°
Enters shadow 00:02:22 18° 230° (SW) 1,115 -1.8 -17.0°
